Location: *
(33.8649°S, 62.1526°E)
Time: 03:17:19
(UTC+00:00)

Cosmos 676 Rocket - Pass Details

Date: 17 January 2021
Orbit: 754 x 784 km, 74.0° (Epoch: 27 February)

Event Time Altitude Azimuth Distance (km) Brightness Sun altitude
Exits shadow 22:45:47 57° 295° (WNW) 906 4.0 -23.0°
Maximum altitude 22:46:33 65° 252° (WSW) 848 4.0 -22.9°
Drops below altitude 10° 22:51:47 10° 170° (S) 2,315 7.3 -22.2°
Sets 22:54:11 0° 166° (SSE) 3,245 8.2 -21.8°
